Weather in Poltavka

Russia / Republic of Crimea     45°20′57″N   34°11′14″E
temp.,
°C
wind,
m/s
gust,
m/s
humid.,
%
clouds,
%
prec.,
mm/h
press.,
hPa
HPBL,
m
27 january, wed
wed2700:00+9s3682100 0.4 1008152
03:00+10sse51079100 0.6 1005246
06:00+11sse81571100 0.0 1003324
09:00+11se61168100 0.0 1002186
12:00+14sse51256100 0.0 1002660
15:00+15sse585499 0.0 9991054
18:00+12ese5960100 0.0 998292
21:00+11se61062100 0.0 997259
28 january, thu
thu2800:00+10se71359100 0.0 997362
03:00+8wsw51079100 0.0 997340
06:00+7sw91376100 0.4 998923
09:00+5ssw6127383 0.4 1001956
12:00+6sw10145724 0.0 10031581
15:00+5sw10145355 0.1 10041938
18:00+4ssw8136295 0.1 10061418
21:00+3ssw7137289 0.1 10061088
29 january, fri
fri2900:00+3sw8148194 0.8 10071262
03:00+2sw10159597 1.5 10071057
06:00+2sw101595100 1.6 10071002
09:00+2sw81396100 3.9 1007788
12:00+3sw91381100 1.8 10081144
15:00+5wsw101466100 2.0 10071546
18:00+4sw81370100 0.1 1007983
21:00+5sw71374100 0.1 1008981
30 january, sat
sat3000:00+5sw71290100 0.8 1008815
03:00+6sw71385100 1.3 1007788
06:00+5ssw4992100 0.1 1006330
09:00+6ssw41289100 0.3 1005633
12:00+7ssw71273100 0.1 1005907
15:00+9ssw5966100 0.1 10021116
18:00+7ssw3770100 0.0 1002352
21:00+6sw4974100 0.0 1002372
31 january, sun
sun3100:00+6s237599 0.0 100244
03:00+6ssw237297 0.0 1003110
06:00+5w479587 0.1 1004268
09:00+6wsw4108892 0.1 1006537
12:00+8sw6873100 0.0 1007746
15:00+10ssw575991 0.0 1006914
18:00+7se3777100 0.0 1005201
21:00+9sse81564100 0.0 1003310